INTELSAT 18 (IS-18)

Last updated on Sat Dec 13 2025 00:02:47 GMT+0000 (Coordinated Universal Time)

1 37834U 11056A 25346.24065890 .00000063 00000+0 00000+0 0 9999 2 37834 0.0122 299.9441 0001895 330.2292 77.6472 1.00271614 51937
UTC large
Height (km)
Speed (km/s)
/
Latitude / Longitude
Inclination (degrees)
Orbital Period (minutes)
Azimuth
Elevation
Range (km)
Doppler Factor

Next 0 passes for location: London (51.5072 / 0.1276)

Sorry there are no passes over London.